Content
SEND FEEDBACK

Daily
Averages
Monthly
Summary
Jamaica

MONTEGO BAY, JAMAICA


Home > Caribbean > Jamaica
Elevation: 10 feet     Latitude: 18 30N     Longitude: 077 55W

WEATHER
 
SELECT A DAY
Number of Records: 171,638;   Date Range: 7/1/96 - 10/20/14
 
SHARE

PRINT THIS DATA

[ ← Previous Day ]
WEATHER ALMANAC - FEBRUARY 8, 2013
[ Next Day → ]
[ °C ]   °F
Weather ElementAverageHighLow
Temperature79 °F83 °F (1:00 pm)73.4 °F (6:00 am)
Dewpoint68.1 °F71.6 °F (12:00 pm)33.8 °F (11:00 am)
Humidity69 %83 % (6:00 am)18 % (11:00 am)
Barometer29.97 in30.04 in (12:00 pm)29.92 in (2:00 am)
Wind Speed8.7 mph13.8 mph (12:00 pm)
Weather ElementAverage
Visibility7.9 mi
Wind DirectionE (92.6 °)

Weather ElementTotal
Precipitation---
Cooling Degree Days13.2 (Base 65)
Growing Degree Days28.2 (Base 50)
Averaged from 31 records on February 8, 2013
WEATHER CONDITIONS BREAKOUT
WIND DIRECTION BREAKOUT
WEATHER BY HOUR - FEBRUARY 8, 2013
[ °C ]   °F
Local TimeTemperatureDewpointHumidityBarometerVisibilityWind DirectionWind SpeedGust SpeedPrecipitationEventsConditions
1:00 AM76.0 °F67.0 °F66 %29.96 in12.0 miSSE (150°)4.6 mphScattered Clouds
1:00 AM75.2 °F66.2 °F73 %29.95 in6.2 miSSE (150°)4.6 mphPartly Cloudy
2:00 AM75.2 °F68.0 °F78 %29.92 in6.2 miESE (110°)3.5 mphPartly Cloudy
3:00 AM75.2 °F66.2 °F73 %29.92 in6.2 miSSE (150°)2.3 mphPartly Cloudy
4:00 AM74.0 °F68.0 °F76 %29.95 in12.0 miSE (140°)3.5 mphScattered Clouds
4:00 AM75.2 °F68.0 °F78 %29.95 in6.2 miSE (140°)3.5 mphPartly Cloudy
5:00 AM75.2 °F68.0 °F78 %29.95 in6.2 miSSE (160°)3.5 mphPartly Cloudy
6:00 AM73.4 °F68.0 °F83 %29.95 in6.2 miSE (140°)5.8 mphPartly Cloudy
7:00 AM74.0 °F68.0 °F75 %29.98 in16.0 miSE (130°)3.5 mphScattered Clouds
7:00 AM73.4 °F68.0 °F83 %29.98 in6.2 miSE (130°)3.5 mphPartly Cloudy
8:00 AM77.0 °F68.0 °F74 %29.98 in6.2 miSE (140°)6.9 mphPartly Cloudy
9:00 AM80.6 °F69.8 °F70 %30.01 in6.2 miESE (110°)4.6 mphPartly Cloudy
10:00 AM80.0 °F70.0 °F64 %30.03 in16.0 miEast (100°)8.1 mphScattered Clouds
10:00 AM80.6 °F69.8 °F70 %30.01 in6.2 miEast (100°)8.1 mphPartly Cloudy
11:00 AM80.6 °F33.8 °F18 %30.01 in6.2 miENE (60°)8.1 mphPartly Cloudy
12:00 PM82.4 °F71.6 °F70 %30.04 in6.2 miNE (50°)13.8 mphPartly Cloudy
1:00 PM83.0 °F71.0 °F59 %29.99 in16.0 miNE (50°)13.8 mphScattered Clouds
1:00 PM82.4 °F71.6 °F70 %29.98 in6.2 miNE (50°)13.8 mphPartly Cloudy
2:00 PM82.4 °F71.6 °F70 %30.01 in6.2 miNE (40°)13.8 mphPartly Cloudy
2:02 PM82.4 °F71.6 °F70 %29.92 in6.2 miNE (40°)13.8 mphPartly Cloudy
3:00 PM82.4 °F69.8 °F66 %29.95 in6.2 miNE (50°)11.5 mphPartly Cloudy
4:00 PM82.4 °F71.6 °F70 %29.95 in6.2 miENE (60°)13.8 mphPartly Cloudy
5:00 PM82.4 °F69.8 °F66 %29.95 in6.2 miNE (50°)12.7 mphPartly Cloudy
6:00 PM82.4 °F69.8 °F66 %29.95 in6.2 miENE (60°)12.7 mphPartly Cloudy
7:00 PM81.0 °F70.0 °F62 %29.97 in12.0 miNE (50°)12.7 mphScattered Clouds
7:00 PM80.6 °F69.8 °F70 %29.95 in6.2 miNE (50°)12.7 mphPartly Cloudy
8:00 PM80.6 °F69.8 °F70 %29.98 in6.2 miENE (60°)11.5 mphPartly Cloudy
9:00 PM80.6 °F69.8 °F70 %29.98 in6.2 miENE (60°)10.4 mphPartly Cloudy
10:00 PM80.0 °F69.0 °F62 %30.01 in12.0 miEast (90°)10.4 mphScattered Clouds
10:00 PM80.6 °F69.8 °F70 %30.01 in6.2 miEast (90°)10.4 mphPartly Cloudy
11:00 PM78.8 °F68.0 °F69 %29.98 in6.2 miESE (110°)8.1 mphPartly Cloudy
Hourly data recorded from MKJS, located miles away from Montego Bay, Jamaica







STORIES FROM OUR PARTNERS